Probability
0 0 0 0 0 0 0 0 0 0 0 0 0 0 0 0 0 0 0 0 0 0 0 0 0 1 2 3 4 4 3 3 2 1 0 0 1 1 1 2 2 1 1
0 0 0 0 0 0 0 0 0 0 0 0 0 0 0 0 0 0 0 0 0 0 0 0 0 0 1 3 4 4 3 2 1 0 0 0 0 1 1 2 1 1 1
0 0 0 0 0 0 0 0 0 0 0 0 0 0 0 0 0 0 0 0 0 0 0 0 0 0 1 3 4 4 3 2 1 0 0 0 0 0 1 2 1 2 2
0 0 0 0 0 0 0 0 0 0 0 0 0 0 0 0 0 0 0 0 0 0 0 0 0 0 1 3 3 3 3 2 1 0 0 0 0 0 1 1 1 2 2
0 0 0 0 0 0 0 0 0 0 0 0 0 0 0 0 0 0 0 0 0 0 0 0 0 0 1 3 3 2 1 1 0 0 0 0 0 0 0 0 0 1 1
0 0 0 0 0 0 0 0 0 0 0 0 0 0 0 0 0 0 0 0 0 0 0 0 0 0 0 1 1 1 0 0 0 0 0 0 0 1 0 0 0 0 0
0 0 0 0 0 0 0 0 0 0 0 0 0 0 0 0 0 0 0 0 0 0 0 0 0 0 0 0 0 0 0 0 0 0 0 0 0 1 1 0 0 0 0
0 0 0 0 0 0 0 0 0 0 0 0 0 0 0 0 0 0 0 0 0 0 0 0 0 0 0 0 0 0 0 0 0 0 0 0 0 1 1 0 0 0 0
0 0 0 0 0 0 0 0 0 0 0 0 0 0 0 0 0 0 0 0 0 0 0 0 0 0 0 0 0 0 0 0 0 0 0 0 0 1 1 0 0 0 0
0 0 0 0 0 0 0 0 0 0 0 0 0 0 0 0 0 0 0 0 0 0 0 0 0 0 0 0 0 0 0 0 0 0 0 0 0 0 0 0 0 0 1
0 0 0 0 0 0 0 0 0 0 0 0 0 0 0 0 0 0 0 0 0 0 0 0 0 0 0 0 0 0 0 0 0 0 0 0 0 0 0 0 0 1 2
0 0 0 0 0 0 0 0 0 0 0 0 0 0 0 0 0 0 0 0 0 0 0 0 0 0 0 0 0 0 0 0 0 0 0 0 0 0 0 0 0 1 2
0 0 0 0 0 0 0 0 0 0 0 0 0 0 0 0 0 0 0 0 0 0 0 0 0 0 0 0 0 0 0 0 0 0 0 0 0 0 0 0 0 1 2
0 0 0 0 0 0 0 0 0 0 0 0 0 0 0 0 0 0 0 0 0 0 0 0 0 0 0 0 0 0 0 0 0 0 0 0 0 0 0 0 0 1 1
0 0 0 0 0 0 0 0 0 0 0 0 0 0 0 0 0 0 0 0 0 0 0 0 0 0 0 0 0 0 0 0 0 0 0 0 0 0 0 0 0 0 0
0 0 0 0 0 0 0 0 0 0 0 0 0 0 0 0 0 0 0 0 0 0 0 0 0 0 0 0 0 0 0 0 0 0 0 0 0 0 0 0 0 0 0
0 0 0 0 0 0 0 0 0 0 0 0 0 0 0 0 0 0 0 0 0 0 0 0 0 0 0 0 0 0 0 0 0 0 0 0 0 0 0 0 0 0 0
0 0 0 0 0 0 0 0 0 0 0 0 0 0 0 0 0 0 0 0 0 0 0 0 0 0 0 0 0 0 0 0 0 0 0 0 0 0 0 0 0 0 0
0 0 0 0 0 0 0 0 0 0 0 0 0 0 0 0 0 0 0 0 0 0 0 0 0 0 0 0 0 0 0 0 0 0 0 0 0 0 0 0 0 0 0
0 0 0 0 0 0 0 0 0 0 0 0 0 0 0 0 0 0 0 0 0 0 0 0 0 0 0 0 0 0 0 0 0 0 0 0 0 0 0 0 0 0 0
0 0 0 0 0 0 0 0 0 0 0 0 0 0 0 0 0 0 0 0 0 0 0 0 0 0 0 0 0 0 0 0 0 0 0 0 0 0 0 0 0 0 0
0 0 0 0 0 0 0 0 0 0 0 0 0 0 0 0 0 0 0 0 0 0 0 0 0 0 0 0 0 0 0 0 0 0 0 0 0 0 0 0 0 0 0
0 0 0 0 0 0 0 0 0 0 0 0 0 0 0 0 0 0 0 0 0 0 0 0 0 0 0 0 0 0 0 0 0 0 0 0 0 0 0 0 0 0 0
0 0 0 0 0 0 0 0 0 0 0 0 0 0 0 0 0 0 0 0 0 0 0 0 0 0 0 0 0 0 0 0 0 0 0 0 0 0 0 0 0 0 0
0 0 0 0 0 0 0 0 0 0 0 0 0 0 0 0 0 0 0 0 0 0 0 0 0 0 0 0 0 0 0 0 0 0 0 0 0 0 0 0 0 0 0
0 0 0 0 0 0 0 0 0 0 0 0 0 0 0 0 0 0 0 0 0 0 0 0 0 0 0 0 0 0 0 0 0 0 0 0 0 0 0 0 0 0 0
Wind_Speed
3 3 2 3 3 3 3 3 3 4 5 5 4 5 5 4 4 4 4 10 11 10 9 9 9 9 9 9 9 9 8 8 7 7 7 7 7 6 6 5 4 3 3
2 3 3 3 3 3 3 3 3 4 3 4 5 5 5 4 5 5 5 7 12 12 11 11 10 10 10 10 10 10 10 9 8 8 8 7 7 7 6 5 4 3 3
3 3 3 3 3 3 3 3 4 4 4 5 5 5 5 5 5 6 6 5 6 11 13 13 12 12 12 11 11 11 10 10 9 9 8 8 8 7 7 6 4 3 4
4 3 3 3 3 3 3 3 3 4 4 4 4 5 5 5 6 6 6 6 5 5 9 13 13 13 13 13 12 11 11 10 10 9 9 8 8 8 8 8 6 5 5
4 4 3 3 3 3 3 3 4 3 3 4 4 5 5 5 5 7 7 7 6 6 5 9 13 14 14 14 13 12 12 11 11 10 9 9 8 8 8 7 7 6 5
4 4 3 4 4 4 4 3 4 4 3 3 5 5 5 5 5 6 6 6 6 7 7 7 7 9 14 15 14 13 12 12 11 11 10 9 9 8 7 7 6 6 5
4 4 4 4 4 4 3 3 3 5 4 2 3 4 4 5 6 6 5 5 7 6 7 7 6 5 6 13 14 14 14 12 11 11 11 10 9 9 8 7 6 6 6
4 4 4 3 3 3 5 4 3 2 3 3 2 3 3 4 5 6 5 6 6 5 7 8 7 7 6 5 9 14 13 12 12 12 11 10 9 9 9 7 6 5 6
4 4 4 4 4 4 3 4 3 3 2 3 3 3 3 1 1 3 5 5 5 5 5 5 7 7 7 6 6 10 13 13 13 12 12 12 11 10 10 9 8 6 6
3 4 4 4 4 3 3 3 3 2 3 2 3 3 2 3 3 1 3 4 5 6 5 5 6 6 6 5 7 11 13 13 13 13 12 12 11 11 11 11 10 8 7
3 3 4 4 4 3 4 4 4 4 3 3 2 2 3 3 3 3 1 3 3 3 4 4 4 4 5 5 4 9 13 12 13 13 12 12 11 11 11 11 11 10 9
2 3 3 3 3 3 4 4 4 5 4 4 3 2 2 2 1 2 2 1 2 2 3 3 4 4 4 5 7 12 12 12 12 12 12 12 12 12 11 11 10 10 9
1 1 2 2 2 2 3 3 4 4 4 4 3 2 2 2 1 2 3 1 1 2 3 3 3 4 4 4 5 11 11 12 12 11 11 11 12 12 12 12 11 11 10
1 0 1 2 2 3 3 3 3 3 3 4 4 3 2 2 2 2 2 2 2 2 3 3 2 3 4 3 5 8 6 11 12 11 11 11 11 12 12 12 12 11 11
1 1 2 2 2 3 3 4 3 3 3 3 3 3 3 2 2 2 2 2 3 2 2 3 3 3 4 3 5 4 4 9 11 11 11 11 11 11 11 12 12 11 10
2 2 2 2 2 2 3 4 3 2 4 3 2 3 3 2 2 2 2 2 2 3 1 2 2 3 4 4 7 4 4 9 10 10 10 10 10 11 11 11 12 11 11
3 3 3 3 3 2 3 3 3 3 3 3 2 3 3 2 2 2 2 2 2 2 2 1 2 2 3 4 5 4 4 4 5 10 10 10 10 10 10 11 11 11 11
3 3 3 3 3 3 3 3 2 2 2 2 1 2 2 2 3 2 2 2 1 1 2 0 2 2 3 3 3 4 4 4 3 8 9 9 10 10 10 10 10 10 10
3 3 3 4 3 3 3 3 3 2 2 2 1 2 1 2 2 1 1 1 1 1 1 1 1 2 2 2 3 3 4 3 4 6 7 8 10 10 10 10 10 10 10
4 4 4 4 3 3 3 3 3 3 2 1 1 1 1 2 2 1 1 1 1 1 1 1 1 2 2 2 2 3 4 3 4 5 5 6 8 10 10 10 10 10 10
4 4 4 3 3 3 3 4 3 3 3 2 1 1 1 2 2 2 1 1 1 1 1 1 1 1 2 2 2 2 3 4 3 3 3 4 4 4 5 8 9 10 10
3 3 3 3 3 3 5 7 6 3 3 3 2 1 1 1 1 1 1 2 2 2 1 1 1 1 2 2 2 2 2 3 4 2 2 4 3 4 4 4 7 9 10
3 3 3 3 3 4 6 7 7 4 3 3 3 2 1 1 1 1 0 1 1 0 2 3 2 3 3 3 2 2 2 2 4 3 2 4 3 4 4 5 9 10 10
3 3 3 4 3 4 6 7 7 4 3 2 3 3 3 2 2 2 1 0 1 2 2 2 3 4 4 3 3 3 3 3 3 3 1 3 3 4 5 4 9 9 9
3 3 3 4 4 4 5 6 6 3 2 2 2 3 3 3 4 3 2 1 2 3 3 3 3 4 5 4 2 0 1 1 3 3 1 2 3 4 4 4 5 8 9
4 4 3 3 4 4 5 6 6 3 2 2 2 2 4 4 5 4 3 3 3 4 3 3 3 5 4 4 4 2 2 2 2 3 2 1 2 3 4 3 3 4 5
Wind_Direction
34 26 21 22 22 25 35 32 33 40 43 44 51 51 41 33 31 29 18 32 38 41 48 53 57 56 56 50 45 48 52 52 55 53 49 48 48 47 48 55 63 80 99
48 43 33 28 24 24 35 45 44 47 45 48 47 44 41 34 34 35 34 31 37 40 42 46 53 57 57 53 48 49 52 51 51 49 49 48 48 46 41 43 52 81 97
46 50 44 31 16 20 41 49 44 47 51 51 43 38 40 36 37 38 38 34 28 35 40 45 49 51 53 51 49 50 50 49 48 47 45 45 44 42 38 39 47 80 98
51 54 49 28 13 31 44 56 46 55 50 52 49 38 37 36 37 40 41 37 32 28 33 44 46 47 47 47 47 48 49 47 46 46 44 43 43 40 38 41 47 68 86
48 57 49 27 27 45 40 54 51 59 61 59 64 51 40 40 35 41 42 38 36 34 33 38 43 43 43 42 43 46 45 44 43 42 44 43 42 39 38 40 49 67 84
45 54 49 31 37 52 42 49 61 55 57 54 71 60 45 40 40 39 37 36 36 38 38 38 33 34 40 40 40 41 43 42 41 40 41 43 40 38 40 45 53 62 84
46 54 51 38 39 54 51 53 70 64 45 28 70 50 32 38 42 36 32 36 34 33 38 40 36 33 30 34 34 37 38 39 41 41 39 38 38 36 37 42 51 60 76
42 55 54 51 44 56 50 43 56 78 47 30 83 86 37 15 16 24 28 37 31 29 36 40 36 34 30 25 25 31 31 32 37 39 37 36 38 36 36 33 37 60 69
45 53 55 58 52 58 59 48 52 82 83 38 45 107 118 128 356 2 21 32 30 32 26 28 35 30 28 24 17 23 29 29 33 36 36 37 39 38 35 32 38 51 72
44 50 57 59 56 54 57 52 57 68 93 72 44 44 83 131 120 52 358 10 29 34 25 27 26 26 24 19 20 24 28 28 28 30 32 33 35 36 36 37 40 45 53
31 44 55 60 57 54 56 56 57 59 68 85 79 71 66 59 72 112 65 350 5 11 18 18 20 20 19 16 12 22 26 26 25 26 28 29 31 33 36 40 42 42 40
18 31 54 59 61 59 58 59 63 65 66 74 70 67 87 95 89 102 114 45 356 336 354 10 18 12 12 12 17 23 25 25 24 26 27 29 31 31 31 33 36 37 34
14 2 51 64 65 71 72 68 66 62 63 72 72 66 66 77 109 114 112 105 38 340 344 354 2 4 10 9 8 16 20 24 27 30 29 30 31 31 30 29 28 28 26
200 174 94 85 79 81 83 76 68 67 67 69 68 66 64 51 65 94 122 125 78 11 5 342 334 358 357 359 7 15 9 20 27 31 31 30 29 28 26 23 20 20 19
177 134 115 103 90 87 89 90 72 65 72 66 65 64 60 40 51 63 87 116 127 94 358 329 335 339 345 0 10 11 6 14 22 26 28 28 26 24 21 20 17 15 14
157 137 119 113 105 96 96 94 82 76 80 67 69 69 59 41 48 54 71 78 99 132 143 305 304 316 338 3 12 11 11 18 19 20 21 24 23 23 21 19 15 12 9
161 153 147 133 127 119 112 103 96 91 88 72 61 74 65 62 64 54 62 71 73 104 133 300 314 327 350 357 353 358 5 10 5 16 20 22 20 17 14 13 10 6 4
169 161 152 142 140 137 131 126 126 109 111 105 89 84 66 71 61 55 67 73 77 100 134 281 329 338 338 339 343 351 356 0 356 6 13 14 13 10 7 5 3 1 359
167 161 152 155 157 154 147 149 149 144 140 146 148 133 124 99 71 57 68 72 60 70 101 127 313 319 319 335 343 343 349 345 346 356 2 7 5 3 360 357 356 355 354
161 165 165 167 166 162 163 162 155 149 145 155 167 159 162 162 171 156 108 103 96 75 73 90 332 325 321 325 354 343 341 340 338 346 348 350 352 356 354 352 352 352 350
166 163 159 163 165 169 180 172 165 164 164 171 179 187 190 188 181 166 151 162 134 107 85 68 334 337 331 336 328 318 323 321 319 335 334 333 337 339 339 339 345 347 348
158 152 164 168 179 198 193 182 170 169 175 180 190 219 233 245 236 206 172 158 150 152 170 167 235 258 279 274 289 302 314 334 319 322 331 312 324 320 318 318 331 338 342
163 167 181 179 195 212 202 190 183 170 177 184 188 194 215 224 200 163 212 14 349 230 188 182 202 237 250 250 254 281 276 269 270 287 316 299 310 304 305 317 327 333 336
171 180 189 193 198 216 208 200 191 174 170 193 199 197 201 225 210 177 157 103 305 295 270 225 212 236 243 239 217 231 247 268 275 280 266 285 299 292 299 301 313 324 329
178 186 187 188 199 231 222 208 187 161 177 219 227 214 205 215 228 205 170 206 276 289 282 273 266 277 287 285 264 207 310 312 300 293 256 255 284 294 289 285 298 313 319
186 183 190 197 201 219 224 213 190 168 184 223 240 241 229 222 232 224 198 200 244 264 276 301 302 302 295 292 289 232 212 232 267 284 260 245 277 309 303 280 283 296 303